| time (UTC) | temp C | wind direction | speed KPH | gust KPH | rain 1hr cm | rain 24hr cm | rain mn cm | humidity % | barometer mb |
| 20260903162929 | 13 | 247 | 3.2 | 22.5 | 0.03 | 2.11 | 0.84 | 92 | 1008.7 |
| 20260903162417 | 13 | 273 | 4.8 | 27.4 | 0.03 | 2.11 | 0.84 | 92 | 1008.8 |
| 20260903161902 | 13 | 144 | 6.4 | 27.4 | 0.03 | 2.11 | 0.84 | 93 | 1008.9 |
| 20260903161349 | 13 | 172 | 1.6 | 27.4 | 0.03 | 2.11 | 0.84 | 93 | 1009.0 |
| 20260903155810 | 13 | 266 | 1.6 | 29.0 | 0.00 | 2.29 | 0.81 | 93 | 1009.2 |
| 20260903155257 | 13 | 158 | 8.0 | 29.0 | 0.00 | 2.29 | 0.81 | 93 | 1009.2 |
| 20260903154745 | 13 | 291 | 6.4 | 14.5 | 0.00 | 2.29 | 0.81 | 93 | 1009.3 |
| 20260903154231 | 13 | 148 | 6.4 | 41.8 | 0.00 | 2.29 | 0.81 | 93 | 1009.1 |
| 20260903153718 | 13 | 249 | 8.0 | 41.8 | 0.00 | 2.29 | 0.81 | 93 | 1009.1 |
| 20260903153206 | 13 | 267 | 12.9 | 41.8 | 0.00 | 2.29 | 0.81 | 93 | 1009.0 |
| 20260903152723 | 13 | 240 | 4.8 | 30.6 | 0.00 | 2.29 | 0.81 | 93 | 1009.0 |
| 20260903152652 | 13 | 240 | 4.8 | 30.6 | 0.00 | 2.29 | 0.81 | 93 | 1009.0 |
| 20260903152139 | 12 | 205 | 3.2 | 20.9 | 0.00 | 2.29 | 0.81 | 94 | 1008.9 |
| 20260903151626 | 12 | 61 | 0.0 | 20.9 | 0.00 | 2.29 | 0.81 | 94 | 1009.0 |
| 20260903151113 | 12 | 267 | 0.0 | 20.9 | 0.00 | 2.29 | 0.81 | 93 | 1009.0 |
| 20260903150600 | 12 | 170 | 0.0 | 8.0 | 0.00 | 2.29 | 0.81 | 93 | 1009.0 |
| 20260903150047 | 12 | 130 | 0.0 | 27.4 | 0.00 | 2.29 | 0.81 | 93 | 1009.0 |
| 20260903145534 | 12 | 229 | 3.2 | 27.4 | 0.00 | 2.41 | 0.81 | 93 | 1009.0 |
| 20260903145021 | 12 | 238 | 3.2 | 14.5 | 0.00 | 2.41 | 0.81 | 93 | 1008.9 |
| 20260903144508 | 12 | 204 | 0.0 | 6.4 | 0.00 | 2.41 | 0.81 | 93 | 1008.8 |
| 20260903143955 | 13 | 204 | 8.0 | 32.2 | 0.00 | 2.41 | 0.81 | 93 | 1008.9 |
| 20260903143442 | 13 | 175 | 6.4 | 32.2 | 0.00 | 2.41 | 0.81 | 93 | 1008.9 |
| 20260903142929 | 13 | 162 | 12.9 | 32.2 | 0.00 | 2.41 | 0.81 | 93 | 1008.9 |
| 20260903142416 | 13 | 186 | 4.8 | 27.4 | 0.00 | 2.41 | 0.81 | 93 | 1008.8 |
| 20260903141904 | 13 | 175 | 6.4 | 27.4 | 0.00 | 2.41 | 0.81 | 93 | 1008.9 |
| 20260903141350 | 13 | 233 | 0.0 | 11.3 | 0.00 | 2.41 | 0.81 | 93 | 1008.9 |
| 20260903140837 | 13 | 184 | 1.6 | 41.8 | 0.00 | 2.41 | 0.81 | 93 | 1008.9 |
| 20260903140324 | 13 | 183 | 6.4 | 41.8 | 0.00 | 2.41 | 0.81 | 93 | 1008.8 |
| 20260903135811 | 13 | 162 | 8.0 | 41.8 | 0.00 | 2.44 | 0.81 | 94 | 1008.9 |
| 20260903135258 | 13 | 169 | 3.2 | 16.1 | 0.00 | 2.44 | 0.81 | 93 | 1008.7 |
| 20260903134746 | 13 | 275 | 0.0 | 30.6 | 0.00 | 2.44 | 0.81 | 94 | 1008.8 |
| 20260903134232 | 13 | 169 | 3.2 | 30.6 | 0.00 | 2.44 | 0.81 | 94 | 1008.8 |
| 20260903133719 | 13 | 175 | 1.6 | 30.6 | 0.00 | 2.44 | 0.81 | 94 | 1008.8 |
| 20260903133206 | 13 | 242 | 3.2 | 19.3 | 0.00 | 2.44 | 0.81 | 94 | 1008.8 |
| 20260903132653 | 13 | 210 | 3.2 | 19.3 | 0.03 | 2.44 | 0.81 | 94 | 1008.8 |
| 20260903132140 | 13 | 208 | 0.0 | 22.5 | 0.03 | 2.44 | 0.81 | 93 | 1008.8 |
| 20260903131627 | 13 | 175 | 4.8 | 22.5 | 0.03 | 2.44 | 0.81 | 93 | 1008.7 |
| 20260903131114 | 13 | 176 | 1.6 | 22.5 | 0.03 | 2.44 | 0.81 | 94 | 1008.8 |
| 20260903130601 | 12 | 182 | 4.8 | 16.1 | 0.03 | 2.44 | 0.81 | 94 | 1008.7 |
| 20260903130048 | 13 | 268 | 1.6 | 33.8 | 0.03 | 2.44 | 0.81 | 94 | 1008.9 |
| 20260903125536 | 13 | 238 | 0.0 | 33.8 | 0.15 | 2.41 | 0.81 | 94 | 1008.9 |
| 20260903125022 | 12 | 5 | 0.0 | 33.8 | 0.15 | 2.41 | 0.81 | 94 | 1008.9 |
| 20260903124509 | 13 | 32 | 4.8 | 24.1 | 0.20 | 2.41 | 0.81 | 94 | 1008.9 |
| 20260903123956 | 12 | 218 | 8.0 | 24.1 | 0.20 | 2.41 | 0.81 | 94 | 1008.8 |
| 20260903123443 | 12 | 173 | 0.0 | 22.5 | 0.33 | 2.41 | 0.81 | 94 | 1008.9 |
| 20260903122930 | 12 | 212 | 3.2 | 22.5 | 0.38 | 2.41 | 0.81 | 94 | 1008.8 |
| 20260903122417 | 13 | 211 | 6.4 | 19.3 | 0.38 | 2.41 | 0.79 | 94 | 1008.8 |
| 20260903121904 | 12 | 177 | 4.8 | 19.3 | 0.64 | 2.41 | 0.79 | 94 | 1008.9 |
| 20260903121351 | 12 | 119 | 0.0 | 19.3 | 0.64 | 2.41 | 0.79 | 94 | 1008.9 |
| 20260903120838 | 12 | 263 | 4.8 | 19.3 | 0.64 | 2.41 | 0.79 | 94 | 1009.0 |
| 20260903120325 | 12 | 270 | 8.0 | 19.3 | 0.64 | 2.41 | 0.79 | 94 | 1009.1 |
| 20260903115812 | 12 | 0 | 0.0 | 0.0 | 0.51 | 1.78 | 0.79 | 93 | 1009.3 |
| 20260903114746 | 12 | 197 | 3.2 | 20.9 | 0.48 | 1.78 | 0.66 | 93 | 1009.4 |
| 20260903114233 | 12 | 247 | 4.8 | 20.9 | 0.48 | 1.78 | 0.64 | 93 | 1009.5 |
| 20260903113720 | 13 | 284 | 0.0 | 14.5 | 0.46 | 1.78 | 0.56 | 93 | 1009.5 |
| 20260903113207 | 12 | 261 | 8.0 | 25.7 | 0.46 | 1.78 | 0.48 | 93 | 1009.6 |
| 20260903112654 | 12 | 162 | 4.8 | 25.7 | 0.38 | 1.78 | 0.46 | 93 | 1009.6 |
| 20260903111628 | 13 | 221 | 3.2 | 22.5 | 0.13 | 1.78 | 0.33 | 92 | 1009.4 |
| 20260903111115 | 13 | 246 | 8.0 | 32.2 | 0.13 | 1.78 | 0.18 | 92 | 1009.3 |
| 20260903110602 | 12 | 284 | 8.0 | 32.2 | 0.13 | 1.78 | 0.15 | 92 | 1009.0 |
| 20260903110049 | 13 | 75 | 3.2 | 32.2 | 0.13 | 1.78 | 0.15 | 92 | 1009.1 |
| 20260903105536 | 13 | 161 | 9.7 | 19.3 | 0.13 | 1.65 | 0.15 | 92 | 1009.1 |
| 20260903105023 | 13 | 285 | 8.0 | 19.3 | 0.13 | 1.65 | 0.15 | 92 | 1009.0 |
| 20260903104510 | 13 | 254 | 3.2 | 17.7 | 0.10 | 1.65 | 0.15 | 92 | 1009.0 |
| 20260903103957 | 13 | 0 | 0.0 | 16.1 | 0.10 | 1.65 | 0.13 | 92 | 1009.1 |
| 20260903103444 | 13 | 236 | 6.4 | 19.3 | 0.00 | 1.65 | 0.05 | 92 | 1009.3 |
| 20260903102931 | 13 | 238 | 1.6 | 19.3 | 0.03 | 1.65 | 0.03 | 92 | 1009.2 |
| 20260903102454 | 13 | 116 | 3.2 | 24.1 | 0.03 | 1.65 | 0.03 | 92 | 1009.3 |
| 20260903102418 | 13 | 261 | 3.2 | 19.3 | 0.03 | 1.65 | 0.03 | 92 | 1009.2 |
| 20260903101905 | 13 | 148 | 3.2 | 24.1 | 0.03 | 1.65 | 0.03 | 92 | 1009.1 |
| 20260903101352 | 13 | 116 | 3.2 | 24.1 | 0.03 | 1.65 | 0.03 | 92 | 1009.3 |
| 20260903100840 | 13 | 141 | 8.0 | 24.1 | 0.03 | 1.65 | 0.03 | 92 | 1009.3 |
| 20260903095813 | 13 | 275 | 3.2 | 33.8 | 0.03 | 1.63 | 0.03 | 92 | 1009.2 |
| 20260903095300 | 13 | 253 | 4.8 | 33.8 | 0.03 | 1.63 | 0.03 | 92 | 1009.2 |
| 20260903094747 | 13 | 245 | 9.7 | 25.7 | 0.03 | 1.63 | 0.03 | 92 | 1009.3 |
| 20260903094234 | 13 | 266 | 3.2 | 14.5 | 0.03 | 1.63 | 0.03 | 92 | 1009.3 |
| 20260903093721 | 13 | 236 | 4.8 | 27.4 | 0.03 | 1.63 | 0.03 | 92 | 1009.3 |
| 20260903093208 | 13 | 354 | 6.4 | 27.4 | 0.03 | 1.63 | 0.03 | 92 | 1009.3 |
| 20260903092655 | 13 | 176 | 6.4 | 27.4 | 0.00 | 1.63 | 0.03 | 92 | 1009.3 |
| 20260903092142 | 13 | 288 | 1.6 | 25.7 | 0.00 | 1.63 | 0.00 | 92 | 1009.4 |
| 20260903091629 | 13 | 203 | 1.6 | 25.7 | 0.00 | 1.63 | 0.00 | 92 | 1009.4 |
| 20260903091116 | 13 | 190 | 4.8 | 20.9 | 0.00 | 1.63 | 0.00 | 92 | 1009.5 |
| 20260903090603 | 13 | 238 | 4.8 | 20.9 | 0.00 | 1.63 | 0.00 | 92 | 1009.6 |
| 20260903090050 | 13 | 173 | 3.2 | 19.3 | 0.00 | 1.63 | 0.00 | 92 | 1009.6 |
| 20260903085537 | 13 | 107 | 6.4 | 17.7 | 0.00 | 1.63 | 0.00 | 92 | 1009.6 |
| 20260903085024 | 13 | 288 | 3.2 | 25.7 | 0.00 | 1.63 | 0.00 | 92 | 1009.6 |
| 20260903084511 | 13 | 133 | 6.4 | 25.7 | 0.00 | 1.63 | 0.00 | 92 | 1009.6 |
| 20260903083958 | 13 | 312 | 4.8 | 25.7 | 0.00 | 1.63 | 0.00 | 92 | 1009.6 |
| 20260903083445 | 13 | 259 | 3.2 | 20.9 | 0.00 | 1.63 | 0.00 | 92 | 1009.7 |
| 20260903082932 | 13 | 95 | 3.2 | 20.9 | 0.00 | 1.63 | 0.00 | 92 | 1009.7 |
| 20260903081906 | 13 | 256 | 6.4 | 20.9 | 0.00 | 1.63 | 0.00 | 92 | 1009.7 |
| 20260903081353 | 13 | 277 | 3.2 | 20.9 | 0.00 | 1.63 | 0.00 | 92 | 1009.7 |
| 20260903080840 | 13 | 203 | 8.0 | 20.9 | 0.00 | 1.63 | 0.00 | 92 | 1009.7 |
| 20260903080327 | 13 | 278 | 0.0 | 9.7 | 0.00 | 1.63 | 0.00 | 92 | 1009.7 |
| 20260903075814 | 13 | 263 | 3.2 | 20.9 | 0.00 | 1.63 | 0.00 | 92 | 1009.7 |
| 20260903075301 | 13 | 250 | 0.0 | 20.9 | 0.00 | 1.63 | 1.63 | 92 | 1009.7 |
| 20260903074748 | 13 | 275 | 6.4 | 20.9 | 0.00 | 1.63 | 1.63 | 92 | 1009.6 |
| 20260903074236 | 13 | 194 | 0.0 | 16.1 | 0.00 | 1.63 | 1.63 | 92 | 1009.7 |
| 20260903073722 | 13 | 214 | 4.8 | 16.1 | 0.00 | 1.63 | 1.63 | 92 | 1009.7 |
| 20260903073209 | 13 | 288 | 0.0 | 22.5 | 0.00 | 1.63 | 1.63 | 92 | 1009.8 |
| 20260903072656 | 13 | 0 | 0.0 | 22.5 | 0.00 | 1.63 | 1.63 | 92 | 1009.7 |
| 20260903072143 | 13 | 154 | 4.8 | 22.5 | 0.00 | 1.63 | 1.63 | 92 | 1009.7 |
| 20260903071630 | 13 | 169 | 6.4 | 22.5 | 0.00 | 1.63 | 1.63 | 92 | 1009.7 |
| 20260903071117 | 13 | 233 | 1.6 | 22.5 | 0.00 | 1.63 | 1.63 | 92 | 1009.8 |
| 20260903070604 | 13 | 261 | 4.8 | 22.5 | 0.00 | 1.63 | 1.63 | 92 | 1009.8 |
| 20260903070051 | 13 | 148 | 4.8 | 20.9 | 0.00 | 1.63 | 1.63 | 92 | 1009.8 |
| 20260903065538 | 13 | 278 | 4.8 | 20.9 | 0.00 | 1.63 | 1.63 | 92 | 1009.7 |
| 20260903065026 | 13 | 151 | 3.2 | 20.9 | 0.00 | 1.63 | 1.63 | 92 | 1009.7 |
| 20260903063959 | 13 | 0 | 6.4 | 17.7 | 0.00 | 1.63 | 1.63 | 92 | 1009.7 |
| 20260903063446 | 13 | 130 | 9.7 | 17.7 | 0.00 | 1.63 | 1.63 | 92 | 1009.7 |
| 20260903062933 | 13 | 154 | 4.8 | 17.7 | 0.00 | 1.63 | 1.63 | 92 | 1009.8 |
| 20260903062420 | 13 | 219 | 3.2 | 17.7 | 0.00 | 1.63 | 1.63 | 93 | 1009.8 |
| 20260903061907 | 13 | 155 | 3.2 | 12.9 | 0.00 | 1.63 | 1.63 | 92 | 1009.9 |
| 20260903061354 | 13 | 179 | 6.4 | 24.1 | 0.00 | 1.63 | 1.63 | 92 | 1009.8 |
| 20260903060841 | 13 | 217 | 0.0 | 24.1 | 0.00 | 1.63 | 1.63 | 92 | 1009.9 |
| 20260903060328 | 13 | 198 | 6.4 | 24.1 | 0.00 | 1.63 | 1.63 | 93 | 1009.8 |
| 20260903055815 | 13 | 133 | 3.2 | 19.3 | 0.00 | 1.63 | 1.63 | 93 | 1009.9 |
| 20260903055302 | 13 | 93 | 3.2 | 19.3 | 0.00 | 1.63 | 1.63 | 93 | 1009.9 |
| 20260903054748 | 13 | 250 | 3.2 | 14.5 | 0.00 | 1.63 | 1.63 | 93 | 1009.8 |
| 20260903054236 | 13 | 278 | 6.4 | 14.5 | 0.00 | 1.63 | 1.63 | 93 | 1009.8 |
| 20260903053722 | 13 | 144 | 1.6 | 20.9 | 0.00 | 1.63 | 1.63 | 93 | 1009.8 |
| 20260903053209 | 13 | 212 | 1.6 | 20.9 | 0.00 | 1.63 | 1.63 | 93 | 1009.8 |
| 20260903052656 | 13 | 162 | 0.0 | 6.4 | 0.00 | 1.63 | 1.63 | 93 | 1009.9 |
| 20260903052144 | 13 | 184 | 6.4 | 20.9 | 0.00 | 1.63 | 1.63 | 93 | 1009.9 |
| 20260903051631 | 13 | 180 | 0.0 | 20.9 | 0.00 | 1.63 | 1.63 | 93 | 1009.9 |
| 20260903051117 | 13 | 190 | 1.6 | 20.9 | 0.00 | 1.63 | 1.63 | 93 | 1009.9 |
| 20260903050604 | 13 | 270 | 0.0 | 17.7 | 0.00 | 1.63 | 1.63 | 93 | 1009.7 |
| 20260903050051 | 13 | 222 | 0.0 | 12.9 | 0.00 | 1.63 | 1.63 | 93 | 1009.8 |
| 20260903045539 | 13 | 142 | 3.2 | 12.9 | 0.00 | 1.63 | 1.63 | 93 | 1009.8 |
| 20260903045026 | 13 | 250 | 0.0 | 12.9 | 0.00 | 1.63 | 1.63 | 93 | 1009.9 |
| 20260903044512 | 13 | 133 | 1.6 | 14.5 | 0.00 | 1.63 | 1.63 | 93 | 1009.9 |
| 20260903043959 | 13 | 201 | 1.6 | 14.5 | 0.00 | 1.63 | 1.63 | 93 | 1009.8 |
| 20260903043446 | 13 | 0 | 8.0 | 14.5 | 0.00 | 1.63 | 1.63 | 93 | 1009.8 |
| 20260903042934 | 13 | 201 | 0.0 | 14.5 | 0.00 | 1.63 | 1.63 | 93 | 1009.7 |
| 20260903042420 | 13 | 284 | 0.0 | 14.5 | 0.00 | 1.63 | 1.63 | 93 | 1009.7 |
| 20260903041907 | 13 | 161 | 4.8 | 19.3 | 0.00 | 1.63 | 1.63 | 93 | 1009.7 |
| 20260903041355 | 13 | 156 | 0.0 | 19.3 | 0.00 | 1.63 | 1.63 | 93 | 1009.7 |
| 20260903040841 | 13 | 175 | 6.4 | 19.3 | 0.00 | 1.63 | 1.63 | 93 | 1009.6 |
| 20260903040329 | 13 | 159 | 0.0 | 17.7 | 0.00 | 1.63 | 1.63 | 93 | 1009.6 |
| 20260903035816 | 13 | 236 | 4.8 | 17.7 | 0.00 | 1.63 | 1.63 | 93 | 1009.5 |
| 20260903035306 | 13 | 246 | 9.7 | 17.7 | 0.00 | 1.63 | 1.63 | 93 | 1009.5 |
| 20260903034749 | 13 | 281 | 6.4 | 16.1 | 0.00 | 1.63 | 1.63 | 93 | 1009.6 |
| 20260903034236 | 13 | 189 | 0.0 | 20.9 | 0.00 | 1.63 | 1.63 | 93 | 1009.4 |
| 20260903033723 | 13 | 135 | 1.6 | 20.9 | 0.00 | 1.63 | 1.63 | 93 | 1009.4 |
| 20260903033210 | 13 | 190 | 4.8 | 20.9 | 0.00 | 1.63 | 1.63 | 93 | 1009.4 |
| 20260903032657 | 13 | 299 | 1.6 | 19.3 | 0.00 | 1.63 | 1.63 | 93 | 1009.3 |
| 20260903032144 | 13 | 182 | 0.0 | 19.3 | 0.00 | 1.63 | 1.63 | 93 | 1009.3 |
| 20260903031631 | 13 | 201 | 0.0 | 30.6 | 0.00 | 1.63 | 1.63 | 93 | 1009.3 |
| 20260903031118 | 13 | 168 | 4.8 | 30.6 | 0.00 | 1.63 | 1.63 | 93 | 1009.2 |
| 20260903030605 | 13 | 197 | 4.8 | 30.6 | 0.00 | 1.63 | 1.63 | 93 | 1009.3 |
| 20260903030052 | 13 | 154 | 3.2 | 19.3 | 0.00 | 1.63 | 1.63 | 93 | 1009.2 |
| 20260903025539 | 13 | 298 | 0.0 | 19.3 | 0.00 | 1.63 | 1.63 | 93 | 1009.2 |
| 20260903025026 | 13 | 215 | 8.0 | 19.3 | 0.00 | 1.63 | 1.63 | 93 | 1009.1 |
| 20260903024514 | 13 | 0 | 3.2 | 16.1 | 0.00 | 1.63 | 1.63 | 93 | 1009.1 |
| 20260903024000 | 13 | 0 | 6.4 | 6.4 | 0.00 | 1.63 | 1.63 | 93 | 1009.1 |
| 20260903023447 | 13 | 0 | 4.8 | 20.9 | 0.00 | 1.63 | 1.63 | 93 | 1009.2 |
| 20260903022935 | 13 | 215 | 8.0 | 20.9 | 0.00 | 1.63 | 1.63 | 93 | 1009.0 |
| 20260903022421 | 13 | 168 | 1.6 | 20.9 | 0.00 | 1.63 | 1.63 | 93 | 1009.0 |
| 20260903021909 | 13 | 256 | 0.0 | 24.1 | 0.00 | 1.63 | 1.63 | 93 | 1009.0 |
| 20260903021355 | 13 | 210 | 4.8 | 24.1 | 0.00 | 1.63 | 1.63 | 93 | 1009.0 |
| 20260903020842 | 13 | 208 | 8.0 | 24.1 | 0.00 | 1.63 | 1.63 | 93 | 1008.9 |
| 20260903020329 | 13 | 173 | 8.0 | 20.9 | 0.00 | 1.63 | 1.63 | 93 | 1009.0 |
| 20260903015817 | 13 | 215 | 0.0 | 20.9 | 0.00 | 1.63 | 1.63 | 93 | 1009.1 |
| 20260903015305 | 13 | 226 | 0.0 | 12.9 | 0.00 | 1.63 | 1.63 | 94 | 1009.0 |
| 20260903014750 | 13 | 205 | 0.0 | 8.0 | 0.00 | 1.63 | 1.63 | 94 | 1009.1 |
| 20260903014237 | 13 | 264 | 1.6 | 16.1 | 0.00 | 1.63 | 1.63 | 94 | 1009.1 |
| 20260903013724 | 13 | 193 | 1.6 | 16.1 | 0.00 | 1.63 | 1.63 | 94 | 1009.0 |
| 20260903013212 | 13 | 163 | 0.0 | 16.1 | 0.00 | 1.63 | 1.63 | 94 | 1009.0 |
| 20260903012659 | 13 | 224 | 4.8 | 12.9 | 0.00 | 1.63 | 1.63 | 93 | 1008.9 |
| 20260903012146 | 14 | 194 | 0.0 | 11.3 | 0.00 | 1.63 | 1.63 | 93 | 1008.9 |
| 20260903011632 | 14 | 215 | 1.6 | 6.4 | 0.00 | 1.63 | 1.63 | 94 | 1008.9 |
| 20260903010053 | 14 | 120 | 1.6 | 20.9 | 0.00 | 1.63 | 1.63 | 94 | 1008.8 |
| 20260903005540 | 14 | 0 | 0.0 | 16.1 | 0.00 | 1.63 | 1.63 | 94 | 1008.8 |
| 20260903005027 | 14 | 201 | 1.6 | 16.1 | 0.00 | 1.63 | 1.63 | 94 | 1008.8 |
| 20260903004514 | 13 | 0 | 0.0 | 16.1 | 0.00 | 1.63 | 1.63 | 94 | 1008.8 |
| 20260903004001 | 14 | 0 | 1.6 | 16.1 | 0.00 | 1.63 | 1.63 | 94 | 1008.8 |
| 20260903003448 | 14 | 0 | 0.0 | 20.9 | 0.00 | 1.63 | 1.63 | 94 | 1008.8 |
| 20260903002935 | 15 | 238 | 1.6 | 20.9 | 0.00 | 1.63 | 1.63 | 94 | 1008.7 |
| 20260903002422 | 15 | 268 | 4.8 | 20.9 | 0.00 | 1.63 | 1.63 | 94 | 1008.7 |
| 20260903001909 | 14 | 296 | 3.2 | 11.3 | 0.00 | 1.63 | 1.63 | 95 | 1008.7 |
| 20260903001356 | 14 | 233 | 0.0 | 8.0 | 0.00 | 1.63 | 1.63 | 95 | 1008.6 |
| 20260903000843 | 14 | 281 | 1.6 | 8.0 | 0.00 | 1.63 | 1.63 | 95 | 1008.6 |
| 20260903000332 | 14 | 0 | 0.0 | 0.0 | 0.00 | 1.63 | 1.63 | 95 | 1008.5 |
| 20260902235817 | 13 | 0 | 0.0 | 0.0 | 0.03 | 1.63 | 1.63 | 95 | 1008.5 |
| 20260902235306 | 13 | 0 | 0.0 | 0.0 | 0.03 | 1.63 | 1.63 | 95 | 1008.4 |
| 20260902234751 | 14 | 0 | 0.0 | 4.8 | 0.08 | 1.63 | 1.63 | 95 | 1008.4 |
| 20260902234238 | 13 | 0 | 0.0 | 4.8 | 0.08 | 1.63 | 1.63 | 95 | 1008.3 |
| 20260902233725 | 13 | 218 | 0.0 | 4.8 | 0.08 | 1.63 | 1.63 | 95 | 1008.2 |
| 20260902233212 | 13 | 0 | 0.0 | 0.0 | 0.08 | 1.63 | 1.63 | 95 | 1008.1 |
| 20260902232659 | 13 | 0 | 0.0 | 0.0 | 0.08 | 1.63 | 1.63 | 95 | 1008.1 |
| 20260902232146 | 13 | 0 | 0.0 | 0.0 | 0.08 | 1.63 | 1.63 | 95 | 1008.0 |
| 20260902231633 | 13 | 0 | 0.0 | 0.0 | 0.08 | 1.63 | 1.63 | 95 | 1008.0 |
| 20260902231120 | 13 | 0 | 0.0 | 0.0 | 0.08 | 1.63 | 1.63 | 95 | 1007.9 |
| 20260902230607 | 13 | 0 | 0.0 | 0.0 | 0.08 | 1.63 | 1.63 | 95 | 1007.9 |
| 20260902230054 | 13 | 0 | 0.0 | 0.0 | 0.08 | 1.63 | 1.63 | 95 | 1007.8 |
| 20260902225541 | 13 | 0 | 0.0 | 0.0 | 0.05 | 1.63 | 1.63 | 95 | 1007.8 |
| 20260902225028 | 13 | 0 | 0.0 | 0.0 | 0.05 | 1.60 | 1.60 | 95 | 1007.8 |
| 20260902224516 | 13 | 0 | 0.0 | 0.0 | 0.00 | 1.55 | 1.55 | 95 | 1007.8 |
| 20260902223449 | 13 | 0 | 0.0 | 0.0 | 0.00 | 1.55 | 1.55 | 95 | 1007.7 |
| 20260902222936 | 13 | 0 | 0.0 | 0.0 | 0.05 | 1.55 | 1.55 | 94 | 1007.5 |
| 20260902222423 | 13 | 0 | 0.0 | 0.0 | 0.05 | 1.55 | 1.55 | 95 | 1007.5 |
| 20260902221910 | 13 | 0 | 0.0 | 0.0 | 0.05 | 1.55 | 1.55 | 95 | 1007.4 |
| 20260902221357 | 13 | 0 | 0.0 | 0.0 | 0.05 | 1.55 | 1.55 | 95 | 1007.4 |
| 20260902220844 | 12 | 0 | 0.0 | 0.0 | 0.10 | 1.55 | 1.55 | 95 | 1007.3 |
| 20260902215820 | 13 | 0 | 0.0 | 0.0 | 0.10 | 1.55 | 1.55 | 95 | 1007.4 |
| 20260902214752 | 12 | 0 | 0.0 | 0.0 | 0.10 | 1.55 | 1.55 | 95 | 1007.5 |
| 20260902214239 | 12 | 0 | 0.0 | 9.7 | 0.10 | 1.55 | 1.55 | 95 | 1007.5 |
| 20260902213726 | 12 | 0 | 0.0 | 9.7 | 0.15 | 1.55 | 1.55 | 95 | 1007.4 |
| 20260902213213 | 12 | 158 | 1.6 | 9.7 | 0.15 | 1.55 | 1.55 | 95 | 1007.4 |
| 20260902212700 | 12 | 274 | 3.2 | 25.7 | 0.15 | 1.55 | 1.55 | 94 | 1007.4 |
| 20260902212147 | 12 | 275 | 0.0 | 25.7 | 0.15 | 1.50 | 1.50 | 94 | 1007.2 |
| 20260902211634 | 12 | 275 | 8.0 | 25.7 | 0.20 | 1.50 | 1.50 | 94 | 1007.2 |
| 20260902211121 | 12 | 194 | 4.8 | 25.7 | 0.20 | 1.50 | 1.50 | 94 | 1007.2 |
| 20260902210608 | 13 | 232 | 6.4 | 25.7 | 0.23 | 1.47 | 1.47 | 94 | 1007.1 |
| 20260902210055 | 12 | 224 | 6.4 | 17.7 | 0.23 | 1.47 | 1.47 | 94 | 1007.1 |
| 20260902205542 | 12 | 270 | 3.2 | 16.1 | 0.28 | 1.45 | 1.45 | 94 | 1007.0 |
| 20260902205029 | 12 | 211 | 4.8 | 29.0 | 0.28 | 1.45 | 1.45 | 94 | 1006.9 |
| 20260902204516 | 12 | 0 | 6.4 | 29.0 | 0.28 | 1.45 | 1.45 | 94 | 1006.8 |
| 20260902204003 | 12 | 232 | 9.7 | 29.0 | 0.28 | 1.45 | 1.45 | 94 | 1006.8 |
| 20260902203450 | 13 | 215 | 4.8 | 22.5 | 0.25 | 1.42 | 1.42 | 94 | 1006.7 |
| 20260902202937 | 12 | 176 | 8.0 | 25.7 | 0.28 | 1.40 | 1.40 | 94 | 1006.7 |
| 20260902202424 | 13 | 210 | 0.0 | 25.7 | 0.28 | 1.37 | 1.37 | 94 | 1006.7 |
| 20260902201911 | 12 | 194 | 3.2 | 25.7 | 0.28 | 1.35 | 1.35 | 94 | 1006.7 |
| 20260902201358 | 13 | 236 | 3.2 | 16.1 | 0.28 | 1.30 | 1.30 | 94 | 1006.7 |
| 20260902200845 | 12 | 162 | 0.0 | 38.6 | 0.23 | 1.27 | 1.27 | 93 | 1006.7 |
| 20260902200332 | 12 | 189 | 11.3 | 38.6 | 0.23 | 1.24 | 1.24 | 94 | 1006.8 |
| 20260902195819 | 12 | 291 | 4.8 | 38.6 | 0.23 | 1.22 | 1.22 | 93 | 1006.7 |
| 20260902195307 | 12 | 158 | 4.8 | 30.6 | 0.23 | 1.19 | 1.19 | 93 | 1006.5 |
| 20260902194753 | 12 | 221 | 3.2 | 30.6 | 0.25 | 1.17 | 1.17 | 93 | 1006.5 |
| 20260902194240 | 13 | 200 | 8.0 | 30.6 | 0.25 | 1.17 | 1.17 | 93 | 1006.3 |
| 20260902193727 | 13 | 266 | 3.2 | 14.5 | 0.30 | 1.14 | 1.14 | 93 | 1006.3 |
| 20260902193214 | 12 | 225 | 4.8 | 32.2 | 0.30 | 1.14 | 1.14 | 93 | 1006.1 |
| 20260902192702 | 13 | 246 | 3.2 | 32.2 | 0.25 | 1.12 | 1.12 | 93 | 1006.0 |
| 20260902192148 | 13 | 239 | 8.0 | 32.2 | 0.25 | 1.07 | 1.07 | 93 | 1006.0 |
| 20260902191635 | 13 | 292 | 6.4 | 25.7 | 0.23 | 1.04 | 1.04 | 93 | 1005.9 |
| 20260902191122 | 13 | 163 | 6.4 | 32.2 | 0.23 | 1.02 | 1.02 | 92 | 1005.9 |
| 20260902190609 | 13 | 281 | 0.0 | 32.2 | 0.25 | 0.99 | 0.99 | 92 | 1005.7 |
| 20260902190148 | 13 | 219 | 8.0 | 32.2 | 0.25 | 0.99 | 0.99 | 92 | 1005.7 |
| 20260902190056 | 13 | 219 | 8.0 | 32.2 | 0.25 | 0.99 | 0.99 | 92 | 1005.7 |
| 20260902185543 | 13 | 254 | 1.6 | 22.5 | 0.28 | 0.97 | 0.97 | 92 | 1005.7 |
| 20260902185030 | 13 | 277 | 4.8 | 20.9 | 0.28 | 0.94 | 0.94 | 92 | 1005.8 |
| 20260902184004 | 13 | 0 | 6.4 | 16.1 | 0.33 | 0.91 | 0.91 | 92 | 1005.6 |
| 20260902183451 | 13 | 0 | 0.0 | 14.5 | 0.30 | 0.86 | 0.86 | 92 | 1005.6 |
| 20260902182938 | 13 | 288 | 0.0 | 14.5 | 0.28 | 0.84 | 0.84 | 92 | 1005.5 |
| 20260902182425 | 13 | 183 | 1.6 | 14.5 | 0.28 | 0.84 | 0.84 | 92 | 1005.3 |
| 20260902181912 | 13 | 0 | 0.0 | 12.9 | 0.25 | 0.81 | 0.81 | 92 | 1005.4 |
| 20260902181359 | 13 | 152 | 0.0 | 9.7 | 0.25 | 0.79 | 0.79 | 92 | 1005.2 |
| 20260902180846 | 13 | 194 | 0.0 | 25.7 | 0.20 | 0.79 | 0.79 | 92 | 1005.1 |
| 20260902175820 | 13 | 296 | 8.0 | 25.7 | 0.15 | 0.74 | 0.74 | 91 | 1005.0 |
| 20260902175308 | 13 | 217 | 4.8 | 24.1 | 0.15 | 0.69 | 0.69 | 91 | 1004.9 |
| 20260902174754 | 13 | 180 | 1.6 | 20.9 | 0.10 | 0.64 | 0.64 | 91 | 1004.9 |
| 20260902174241 | 13 | 149 | 0.0 | 8.0 | 0.10 | 0.58 | 0.58 | 91 | 1004.9 |
| 20260902173728 | 13 | 175 | 3.2 | 25.7 | 0.08 | 0.56 | 0.56 | 91 | 1004.8 |
| 20260902173215 | 13 | 0 | 0.0 | 25.7 | 0.08 | 0.56 | 0.56 | 91 | 1004.7 |
| 20260902172149 | 13 | 144 | 4.8 | 22.5 | 0.10 | 0.56 | 0.53 | 91 | 1004.7 |
| 20260902171636 | 13 | 168 | 11.3 | 22.5 | 0.13 | 0.56 | 0.53 | 91 | 1004.6 |
| 20260902171123 | 13 | 212 | 3.2 | 17.7 | 0.13 | 0.56 | 0.53 | 91 | 1004.6 |
| 20260902170609 | 13 | 135 | 1.6 | 16.1 | 0.20 | 0.56 | 0.53 | 91 | 1004.6 |
| 20260902170057 | 13 | 259 | 1.6 | 16.1 | 0.20 | 0.56 | 0.53 | 91 | 1004.4 |
| 20260902165544 | 13 | 135 | 6.4 | 16.1 | 0.23 | 0.51 | 0.51 | 91 | 1004.7 |
| 20260902165031 | 13 | 159 | 0.0 | 11.3 | 0.23 | 0.51 | 0.51 | 91 | 1004.7 |
| 20260902164517 | 13 | 0 | 3.2 | 11.3 | 0.23 | 0.48 | 0.48 | 91 | 1004.6 |
| 20260902164005 | 13 | 0 | 0.0 | 11.3 | 0.23 | 0.48 | 0.48 | 91 | 1004.6 |
| 20260902163451 | 13 | 0 | 3.2 | 11.3 | 0.23 | 0.48 | 0.48 | 91 | 1004.6 |